TimeMDT,TemperatureF,Dew PointF,Humidity,Sea Level PressureIn,VisibilityMPH,Wind Direction,Wind SpeedMPH,Gust SpeedMPH,PrecipitationIn,Events,Conditions,WindDirDegrees,DateUTC
12:53 AM,45.0,37.9,76,29.63,10.0,SSW,8.1,-,N/A,,Overcast,200,2012-04-12 06:53:00
1:53 AM,45.0,37.9,76,29.62,10.0,South,13.8,-,0.00,,Overcast,190,2012-04-12 07:53:00
2:53 AM,43.0,37.9,82,29.65,10.0,SSW,13.8,-,0.02,,Overcast,210,2012-04-12 08:53:00
3:53 AM,44.1,37.9,79,29.67,10.0,SSW,15.0,-,0.00,,Overcast,210,2012-04-12 09:53:00
4:53 AM,44.1,37.0,76,29.69,10.0,SW,12.7,-,N/A,,Mostly Cloudy,220,2012-04-12 10:53:00
5:53 AM,39.9,34.0,79,29.72,10.0,SSW,16.1,-,N/A,,Clear,210,2012-04-12 11:53:00
6:53 AM,39.0,30.9,73,29.76,10.0,SSW,15.0,26.5,N/A,,Partly Cloudy,200,2012-04-12 12:53:00
7:53 AM,39.9,30.9,70,29.79,10.0,WSW,25.3,34.5,N/A,,Partly Cloudy,240,2012-04-12 13:53:00
8:53 AM,42.1,30.0,62,29.81,10.0,SW,18.4,27.6,N/A,,Partly Cloudy,230,2012-04-12 14:53:00
9:53 AM,44.1,30.9,60,29.81,10.0,SW,18.4,31.1,N/A,,Scattered Clouds,220,2012-04-12 15:53:00
10:53 AM,46.0,30.0,54,29.83,10.0,SW,17.3,26.5,N/A,,Scattered Clouds,230,2012-04-12 16:53:00
11:53 AM,50.0,28.0,43,29.80,10.0,WSW,19.6,29.9,N/A,,Scattered Clouds,250,2012-04-12 17:53:00
12:53 PM,48.9,25.0,39,29.80,10.0,WSW,21.9,31.1,N/A,,Mostly Cloudy,250,2012-04-12 18:53:00
1:53 PM,48.0,21.9,36,29.80,10.0,SW,20.7,28.8,N/A,,Mostly Cloudy,230,2012-04-12 19:53:00
2:53 PM,51.1,24.1,35,29.80,10.0,SW,18.4,26.5,N/A,,Scattered Clouds,220,2012-04-12 20:53:00
3:53 PM,51.1,19.9,29,29.77,10.0,SW,18.4,32.2,N/A,,Scattered Clouds,230,2012-04-12 21:53:00
4:53 PM,51.1,21.0,31,29.75,10.0,WSW,15.0,21.9,N/A,,Scattered Clouds,250,2012-04-12 22:53:00
5:53 PM,52.0,21.0,30,29.76,10.0,WSW,15.0,-,N/A,,Scattered Clouds,240,2012-04-12 23:53:00
6:53 PM,51.1,21.9,32,29.77,10.0,WSW,12.7,-,N/A,,Scattered Clouds,250,2012-04-13 00:53:00
7:53 PM,48.0,24.1,39,29.77,10.0,SSW,8.1,-,N/A,,Clear,200,2012-04-13 01:53:00
8:53 PM,43.0,30.9,62,29.79,10.0,South,13.8,-,N/A,,Clear,180,2012-04-13 02:53:00
9:53 PM,42.1,30.0,62,29.81,10.0,South,13.8,-,N/A,,Clear,180,2012-04-13 03:53:00
10:53 PM,41.0,30.9,67,29.81,10.0,South,11.5,-,N/A,,Clear,180,2012-04-13 04:53:00
11:53 PM,42.1,32.0,67,29.81,10.0,South,13.8,23.0,N/A,,Clear,180,2012-04-13 05:53:00